Regional Weather Roundup
Issued by NWS

Home | Current Version | Previous Version | Text Only | Print | Product List | Glossary On
Versions: 1 2 3 4 5 6 7 8 9 10 11 12 13 14 15 16 17 18 19 20 21 22 23 24 25 26 27
000
ASUS45 KTFX 301710
RWRMT
MONTANA REGIONAL WEATHER ROUNDUP
NATIONAL WEATHER SERVICE GREAT FALLS MT
1100 AM MDT MON MAY 30 2016

NOTE: "FAIR" INDICATES FEW OR NO CLOUDS BELOW 12000 FEET WITH NO
SIGNIFICANT WEATHER AND/OR OBSTRUCTIONS TO VISIBILITY.

MTZ001>007-043-301800-
WEST OF THE DIVIDE

CITY           SKY/WX    TMP DP  RH WIND       PRES   REMARKS
KALISPELL      CLOUDY    55  38  52 CALM      30.16S
MISSOULA       MOSUNNY   61  31  32 N14       30.15F
BUTTE          PTSUNNY   52  26  36 NW10G20   30.14F
MULLAN PASS    SUNNY     44  30  57 VRB5      30.22R
ANACONDA         N/A     55  28  35 SW12G20   30.13F
DEER LODGE       N/A     55  30  38 NW16G24   30.14S
EUREKA           N/A     54  37  54 W6        30.20S
HAMILTON         N/A     61  28  29 E3        30.16S
LIBBY            N/A     55  37  50 N8        30.18S
$$

MTZ008-052>055-301800-
SOUTHWEST MONTANA

CITY           SKY/WX    TMP DP  RH WIND       PRES   REMARKS
BOZEMAN        CLOUDY    60  37  42 NW20G29   30.07F
DILLON         PTSUNNY   58  29  33 N6        30.12S
W YELLOWSTONE  MOSUNNY   55  32  41 SW12G23   30.13F
ENNIS          PTSUNNY   55  32  41 NW8G15    30.16F
$$

MTZ009-010-012-014-046-048-049-054-301800-
EAST SLOPES AND CENTRAL MONTANA

CITY           SKY/WX    TMP DP  RH WIND       PRES   REMARKS
CUT BANK       LGT RAIN  47  38  71 NW23G38   30.12R
GREAT FALLS    MOSUNNY   53  41  63 N15G22    30.12F
MALMSTROM AFB  CLOUDY    50  40  68 NW14      30.12S
HELENA         SUNNY     64  28  25 W23G30    30.09R
CHOTEAU          N/A     52  36  54 NW23G30   30.14S
$$

MTZ011-013-016-021-045-047-050-051-301800-
NORTH CENTRAL MONTANA

CITY           SKY/WX    TMP DP  RH WIND       PRES   REMARKS
HAVRE          CLOUDY    52  43  71 W23G29    30.03S
LEWISTOWN      LGT RAIN  47  40  76 NW14G23   30.10R
N BAR RANCH    CLOUDY    52  43  71 NW20G26   30.06R
CHINOOK          N/A     52  45  76 W21       30.01S
$$

MTZ017>020-022>027-061-062-301800-
NORTHEAST MONTANA

CITY           SKY/WX    TMP DP  RH WIND       PRES   REMARKS
GLASGOW        CLOUDY    62  49  62 W9        29.93S
JORDAN           N/A     68  45  43 VRB7      29.94S
SIDNEY         CLOUDY    57  54  88 CALM      29.93S
WOLF POINT     LGT RAIN  60  53  77 W7        29.94S
POPLAR           N/A     61  52  72 SW6       29.95R
$$

MTZ028>42-056>058-301800-
SOUTHCENTRAL AND SOUTHEAST MONTANA

CITY           SKY/WX    TMP DP  RH WIND       PRES   REMARKS
BAKER          CLOUDY    56  51  84 N9        29.95S
BILLINGS       PTSUNNY   64  37  36 W12       30.00F
LIVINGSTON     CLOUDY    58  41  53 W12       30.05S
MILES CITY     CLOUDY    62  51  67 NW10      29.95R
FORSYTH          N/A     61  54  77 W3        29.96S
$$

REGIONAL REPORTS...DAKOTAS

CITY           SKY/WX    TMP DP  RH WIND       PRES   REMARKS
WILLISTON      LGT RAIN  57  49  74 SW8       29.95R
MINOT          CLOUDY    74  55  51 NE5       29.87F
DICKINSON      TSTM      52  50  93 W15       29.97R FOG
BEACH          RAIN      54  54 100 NE10      29.97F
CROSBY         PTSUNNY   64  46  52 W12       29.93R
WATFORD CITY   LGT RAIN  55  55 100 SW7       29.97R
BISMARCK       SUNNY     76  58  53 SE6       29.88S
GRAND FORKS    MOSUNNY   76  55  48 SE12      29.89F
FARGO          SUNNY     82  50  32 VRB7      29.90F
BUFFALO SD       N/A     66  55  67 N16       29.83R
RAPID CITY     SUNNY     74  57  55 E9        29.84F
$$

REGIONAL REPORTS...WYOMING/IDAHO/WASHINGTON

CITY           SKY/WX    TMP DP  RH WIND       PRES   REMARKS
GILLETTE       CLOUDY    56  47  71 N16       30.00R
SHERIDAN       CLOUDY    60  45  57 CALM      30.02S
BUFFALO WY     CLOUDY    56  44  64 N13G26    30.05R
CODY           CLOUDY    61  46  59 NE13      30.03S
YELLOWSTONE LA   N/A     47  35  63 NW6       30.18R
IDAHO FALLS    MOSUNNY   62  44  51 SW10      30.11F
SALMON         SUNNY     59  34  38 NE8       30.13S
BOISE          SUNNY     64  39  39 NW12      30.17S
SPOKANE        PTSUNNY   57  34  41 VRB5      30.23R
$$

REGIONAL REPORTS...ALBERTA

CITY           SKY/WX    TMP DP  RH WIND       PRES   REMARKS
EDMONTON       LGT RAIN  48  41  76 NW14G24   30.10S
CALGARY        MOSUNNY   50  36  57 N28G38    30.13R
LETHBRIDGE     PTSUNNY   50  41  71 NW22G29   30.11S
MEDICINE HAT   LGT RAIN  46  43  87 W26G33    29.98R FOG
WATERTON GATE    N/A     54  36  50 S3          N/A
ONEFOUR          N/A     45  43  93 NW24G33     N/A
$$

REGIONAL REPORTS...SASKATCHEWAN

CITY           SKY/WX    TMP DP  RH WIND       PRES   REMARKS
SWIFT CURRENT  PTSUNNY   59  48  67 W14G24    29.90R
REGINA         PTSUNNY   66  48  52 SE7       29.87S
SASKATOON      PTSUNNY   57  48  72 NE15      29.96S
CYPRESS HILLS    N/A     43  39  87 NW7         N/A
VAL MARIE        N/A     54  48  82 W17         N/A
ROCKGLEN         N/A     54  50  87 W9          N/A
ASSINIBOIA       N/A     48  48 100 NW17        N/A
$$




USA.gov is the U.S. government's official web portal to all federal, state and local government web resources and services.